Regional Weather Roundup
Issued by NWS

Home | Current Version | Previous Version | Text Only | Print | Product List | Glossary On
Versions: 1 2 3 4 5 6 7 8 9 10 11 12 13 14 15 16 17 18 19 20 21 22 23 24 25 26 27 28
000
ASUS44 KLIX 232113
RWRLA
LOUISIANA WEATHER ROUNDUP
NATIONAL WEATHER SERVICE NEW ORLEANS LA
400 PM CDT SAT SEP 23 2017

NOTE: "FAIR" INDICATES FEW OR NO CLOUDS BELOW 12,000 FEET WITH NO
      SIGNIFICANT WEATHER AND/OR OBSTRUCTIONS TO VISIBILITY.
      SKY/WX - SKY CONDITION AND SIGNIFICANT WEATHER.
      TMP - AIR TEMPERATURE.    DP   - DEWPOINT TEMPERATURE.
      RH  - RELATIVE HUMIDITY.  PRES - PRESSURE.
      HX  - HEAT INDEX.         WCI  - WIND CHILL INDEX.

*  THESE STATIONS ARE NOT NWS OR FAA STATIONS AND ARE NOT UNDER
   NWS QUALITY CONTROL.

LAZ040-048-061>063-065-066-069-232200-
SOUTHEAST LOUISIANA

CITY           SKY/WX    TMP DP  RH WIND       PRES   REMARKS
N.O. INTL ARPT MOSUNNY   91  68  46 E14       29.89F HX  95
N.O. LAKEFRONT NOT AVBL
N.O. DOWNTOWN* NOT AVBL
RESERVE*       FAIR      92  66  43 E10       29.90F
SLIDELL        NOT AVBL
BATON ROUGE    PTSUNNY   91  68  46 NE8       29.89F HX  95
BOOTHVILLE     MOSUNNY   87  73  62 E13       29.90F
BELLE CHASSE   NOT AVBL
BOGALUSA*      FAIR      92  63  37 E7        29.92F
GALLIANO*      PTCLDY    87  71  59 SE7       29.90S
NEW ROADS*     FAIR      88  69  53 NE7       29.89F
GONZALES*      FAIR      90  65  43 E9G16     29.89S
HAMMOND*       MOSUNNY   91  64  40 SE6       29.90F
HOUMA*         MOSUNNY   75  75 100 NW7       29.90S
PORT FOURCHON* CLEAR     86  72  62 E13       29.90S

$$

LAZ041-044-053-054-232200-
SOUTHWEST LOUISIANA

CITY           SKY/WX    TMP DP  RH WIND       PRES   REMARKS
LAKE CHARLES   NOT AVBL
LAFAYETTE      NOT AVBL
PATTERSON      NOT AVBL
SALT POINT       N/A     87  73  62 VRB3      29.87F
NEW IBERIA     PTSUNNY   90  68  48 NE15      29.85F
CHENAULT AIRPK MOSUNNY   91  68  46 E9        29.89F HX  95

$$

LAZ027-028-232200-
CENTRAL LOUISIANA

CITY           SKY/WX    TMP DP  RH WIND       PRES   REMARKS
FORT POLK      SUNNY     90  69  49 E6        29.89F HX  95
ALEXANDRIA INT MOSUNNY   90  66  45 SE9       29.89S
ALEXANDRIA     NOT AVBL

$$

LAZ001-002-232200-
NORTHWEST LOUISIANA

CITY           SKY/WX    TMP DP  RH WIND       PRES   REMARKS
SHREVEPORT     MOSUNNY   92  67  43 MISG      29.89F HX  95
BARKSDALE AFB  SUNNY     92  68  45 E8        29.89F HX  96
DTN SHREVEPORT SUNNY     94  67  41 SE10      29.89F HX  97

$$

LAZ014-016-232200-
NORTHEAST LOUISIANA

CITY           SKY/WX    TMP DP  RH WIND       PRES   REMARKS
MONROE         CLOUDY    92  70  48 NE12      29.92F HX  97
TALLULAH       SUNNY     91  69  48 E9        29.92F HX  96

$$





USA.gov is the U.S. government's official web portal to all federal, state and local government web resources and services.